Regional Weather Roundup
Issued by NWS

Home | Current Version | Previous Version | Text Only | Print | Product List | Glossary Off
Versions: 1 2 3 4 5 6 7 8 9 10 11 12 13 14 15 16 17 18 19 20 21 22 23 24 25 26 27 28 29 30 31 32 33 34 35 36 37 38 39 40 41 42 43 44 45 46 47 48 49 50

000
ASUS45 KABQ 210001
RWRNM
WEATHER ROUNDUP FOR NEW MEXICO
NATIONAL WEATHER SERVICE ALBUQUERQUE NM
600 PM MDT WED AUG 20 2014

NOTE: "FAIR" MEANS FEW OR NO CLOUDS BELOW 12,000 FEET AGL WITH NO
       SIGNIFICANT WEATHER OR OBSTRUCTIONS TO VISION.

      THIS PRODUCT IS RELEASED AS TWO VERSIONS.  ONE VERSION NEAR
      THE TOP OF THE HOUR CONTAINING PRELIMINARY DATA FROM ALBUQUERQUE
      AND OTHER STATIONS.  A FINAL VERSION WITH ADDITIONAL DATA IS
      ISSUED ABOUT 10 MINUTES AFTER THE HOUR.

NMZ501-503-504-510>518-210100-
NORTHWEST PLATEAU/NORTHCENTRAL MOUNTAINS

CITY           SKY/WX    TMP DP  RH WIND       PRES   REMARKS
FARMINGTON     SUNNY     83  37  19 W15G22    30.04S
6HR MIN TEMP:  75; 6HR MAX TEMP:  84;

LOS ALAMOS     MOSUNNY   76  40  27 W14G21    30.15S
SANTA FE       PTSUNNY   83  41  22 SW20G26   30.06S
6HR MIN TEMP:  75; 6HR MAX TEMP:  85;

TAOS           MOSUNNY   79  37  22 W13G21    30.13R
ANGEL FIRE     FAIR      72  38  29 W8        30.21S

$$
NMZ402-403-502-505>509-210100-
WESTCENTRAL MOUNTAINS/SOUTHWEST MOUNTAINS

CITY           SKY/WX    TMP DP  RH WIND       PRES   REMARKS
GALLUP         MOSUNNY   77  35  21 W8        30.14S
6HR MIN TEMP:  73; 6HR MAX TEMP:  80;

SILVER CITY    SUNNY     82  41  23 NW13      30.08F

$$
NMZ407-409-411-412-210100-
SOUTHERN DESERTS

CITY           SKY/WX    TMP DP  RH WIND       PRES   REMARKS
LORDSBURG      FAIR      82  54  36 W15G21    30.01F
DEMING         SUNNY     88  40  18 W13       29.98S
6HR MIN TEMP:  83; 6HR MAX TEMP:  90;

LAS CRUCES     MOSUNNY   88  44  21 W6        29.98S
HOLLOMAN AFB   SUNNY     90  52  27 W8        29.92F
ALAMOGORDO     SUNNY     90  50  25 W8G17     29.94S
T OR C         MOSUNNY   86  44  23 NE6       29.98F
6HR MIN TEMP:  81; 6HR MAX TEMP:  89;


$$
NMZ519>523-210100-
CENTRAL VALLEYS/CENTRAL HIGHLANDS

CITY           SKY/WX    TMP DP  RH WIND       PRES   REMARKS
ALBUQUERQUE    MOSUNNY   85  43  22 W7        30.03S
6HR MIN TEMP:  78; 6HR MAX TEMP:  87;

DOUBLE EAGLE   PTSUNNY   82  45  26 SW10      30.07F
CLINES CORNERS SUNNY     77  46  33 W10       30.12F
6HR MIN TEMP:  73; 6HR MAX TEMP:  79;

BELEN          FAIR      85  43  23 W7        30.02F
6HR MIN TEMP:  78; 6HR MAX TEMP:  87;

SOCORRO        FAIR      86  43  22 CALM      29.99F
6HR MIN TEMP:  83; 6HR MAX TEMP:  89;


$$
NMZ524>526-539-540-210100-
SOUTHCENTRAL MOUNTAINS

CITY           SKY/WX    TMP DP  RH WIND       PRES   REMARKS
RUIDOSO        NOT AVBL

$$
NMZ527>531-210100-
NORTHEAST HIGHLANDS/NORTHEAST PLAINS

CITY           SKY/WX    TMP DP  RH WIND       PRES   REMARKS
LAS VEGAS      MOSUNNY   78  49  35 NW15      30.09R
6HR MIN TEMP:  73; 6HR MAX TEMP:  80; 6HR PCP: TRACE;

RATON          LGT RAIN  75  47  36 W15G31    30.03R
6HR MIN TEMP:  72; 6HR MAX TEMP:  86; 6HR PCP: TRACE;

CLAYTON        MOSUNNY   91  46  21 S22G31    29.91S
6HR MIN TEMP:  89; 6HR MAX TEMP:  95;


$$
NMZ532>537-210100-
EASTCENTRAL PLAINS

CITY           SKY/WX    TMP DP  RH WIND       PRES   REMARKS
TUCUMCARI      MOSUNNY   94  50  22 SW15      29.86F
6HR MIN TEMP:  92; 6HR MAX TEMP:  98; 6HR PCP: TRACE;

CANNON AFB     NOT AVBL
CLOVIS AIRPORT   N/A     84  59  42 SE7       29.96R

$$
NMZ028-029-538-210100-
SOUTHEAST PLAINS

CITY           SKY/WX    TMP DP  RH WIND       PRES   REMARKS
ROSWELL        MOSUNNY   91  59  33 NW16G25   29.87S
6HR MIN TEMP:  88; 6HR MAX TEMP:  95;

ARTESIA        SUNNY     91  50  24 SW8       29.87S
CARLSBAD       CLOUDY    97  50  20 SE12G17   29.85R
6HR MIN TEMP:  89; 6HR MAX TEMP:  97;

HOBBS          SUNNY     93  50  22 S13G18    29.91R


$$


USA.gov is the U.S. government's official web portal to all federal, state and local government web resources and services.